Regional Weather Roundup
Issued by NWS Little Rock, AR

Home | Current Version | Previous Version | Graphics & Text | Print | Product List | Glossary On
Versions: 1 2 3 4 5 6 7 8 9 10 11 12 13 14 15 16 17 18 19 20 21 22 23 24 25 26 27 28 29 30 31 32 33 34 35 36 37 38 39 40 41 42 43 44 45 46 47
000
ASUS44 KLZK 210305
RWRLZK

WEATHER ROUNDUP FOR ARKANSAS
NATIONAL WEATHER SERVICE LITTLE ROCK AR
1000 PM CDT SAT SEP 20 2014

NOTE: "FAIR" INDICATES FEW OR NO CLOUDS BELOW 12,000 FEET WITH NO
SIGNIFICANT WEATHER AND/OR OBSTRUCTIONS TO VISIBILITY.

ARZ001-003-010-029-210400-
NORTHWEST ARKANSAS

CITY           SKY/WX    TMP DP  RH WIND       PRES   REMARKS
FAYETTEVILLE   PTCLDY    68  67  96 CALM      30.05R
FORT SMITH     CLEAR     76  70  82 CALM      30.00R
HARRISON       PTCLDY    71  66  84 SW3       30.05R
BENTONVILLE    PTCLDY    70  64  83 CALM      30.05S
ROGERS         MOCLDY    73  66  78 CALM      30.06R
SILOAM SPGS    PTCLDY    70  63  78 SE3       30.05S
HIGHFILL       PTCLDY    69  66  90 CALM      30.04R
$$

ARZ004-005-016-210400-
NORTH CENTRAL ARKANSAS

CITY           SKY/WX    TMP DP  RH WIND       PRES   REMARKS
BATESVILLE     CLEAR     73  64  73 CALM      30.00S
FLIPPIN        CLEAR     73  64  73 SW3       30.02R
MTN HOME       CLEAR     74  68  81 S3        30.02R
$$

ARZ040-041-210400-
WEST CENTRAL ARKANSAS

CITY           SKY/WX    TMP DP  RH WIND       PRES   REMARKS
MENA           CLEAR     70  68  94 CALM      30.05R
MOUNT IDA      CLEAR     71  69  93 CALM      30.02R FOG
$$

ARZ009-017-025-026-028-210400-
NORTHEAST ARKANSAS

CITY           SKY/WX    TMP DP  RH WIND       PRES   REMARKS
CORNING          N/A     72  70  94 S5        29.99S
JONESBORO      CLEAR     71  68  90 CALM      29.99R
NEWPORT        CLEAR     74  68  81 SW6       30.00R
WALNUT RIDGE   CLEAR     73  57  56 S6        29.98S
BLYTHEVILLE    CLEAR     75  70  84 S3        30.00R
$$

ARZ022-023-033-042-044-210400-
CENTRAL ARKANSAS

CITY           SKY/WX    TMP DP  RH WIND       PRES   REMARKS
LITTLE ROCK    CLEAR     77  68  73 CALM      30.01R
N LITTLE ROCK  CLEAR     76  69  80 CALM      30.01R
JACKSONVILLE   CLEAR     72  69  90 CALM      30.01R
SEARCY         CLEAR     71  69  93 CALM      30.01R
HOT SPRINGS    CLEAR     73  68  84 CALM      30.02R
RUSSELLVILLE   CLEAR     71  69  93 CALM      30.00S
CLINTON        FAIR      70  70 100 CALM      30.03R
$$

ARZ036-210400-
EAST ARKANSAS

CITY           SKY/WX    TMP DP  RH WIND       PRES   REMARKS
WEST MEMPHIS   CLEAR     72  69  90 S5        29.99R
$$

ARZ050-053-066-070-073-210400-
SOUTHWEST ARKANSAS

CITY           SKY/WX    TMP DP  RH WIND       PRES   REMARKS
ARKADELPHIA    FAIR      73  73 100 CALM      30.01R
CAMDEN         CLEAR     72  68  88 CALM      30.00R
TEXARKANA      CLEAR     77  70  79 CALM      30.01R
EL DORADO      CLEAR     72  69  90 CALM      30.01R
DE QUEEN       CLEAR     72  71  97 CALM      30.00R FOG
$$

ARZ056-057-069-210400-
SOUTHEAST ARKANSAS

CITY           SKY/WX    TMP DP  RH WIND       PRES   REMARKS
PINE BLUFF     CLEAR     75  66  73 CALM      30.01R
STUTTGART      CLEAR     73  66  78 CALM      30.01S
MONTICELLO     CLEAR     74  69  85 CALM      30.00R

$$




USA.gov is the U.S. government's official web portal to all federal, state and local government web resources and services.